K5MGY Weather Reports


time (UTC)temp
C
wind
direction
speed
KPH
gust
KPH
rain 1hr
cm
rain 24hr
cm
rain mn
cm
humidity
%
barometer
mb
20260506015108 24 51 0.0 1.6 0.00 0.00 0.00 63 1030.0
20260506014606 25 283 1.6 1.6 0.00 0.00 0.00 63 1030.0
20260506014101 25 119 0.0 0.0 0.00 0.00 0.00 63 1030.0
20260506013559 25 212 1.6 4.8 0.00 0.00 0.00 62 1029.8
20260506013055 25 247 0.0 1.6 0.00 0.00 0.00 62 1029.6
20260506012552 25 200 0.0 1.6 0.00 0.00 0.00 61 1029.5
20260506012048 26 260 0.0 3.2 0.00 0.00 0.00 61 1029.5
20260506011547 26 229 0.0 1.6 0.00 0.00 0.00 61 1029.5
20260506011042 26 224 0.0 1.6 0.00 0.00 0.00 61 1029.8
20260506010542 26 202 0.0 0.0 0.00 0.00 0.00 60 1029.6
20260506010038 26 237 1.6 1.6 0.00 0.00 0.00 60 1029.4
20260506005535 26 276 0.0 1.6 0.00 0.00 0.00 60 1029.1
20260506005031 27 251 0.0 0.0 0.00 0.00 0.00 58 1028.8
20260506004529 27 251 0.0 1.6 0.00 0.00 0.00 58 1029.0
20260506004025 27 209 1.6 3.2 0.00 0.00 0.00 58 1029.3
20260506003522 27 229 0.0 1.6 0.00 0.00 0.00 58 1028.9
20260506003018 27 216 0.0 1.6 0.00 0.00 0.00 58 1029.0
20260506002514 28 351 0.0 1.6 0.00 0.00 0.00 57 1028.8
20260506002009 28 249 0.0 1.6 0.00 0.00 0.00 58 1028.9
20260506001506 28 259 0.0 0.0 0.00 0.00 0.00 57 1029.2
20260506001004 29 277 0.0 3.2 0.00 0.00 0.00 59 1028.9
20260506000501 29 189 1.6 3.2 0.00 0.00 0.00 66 1028.8
20260505235958 29 4 3.2 3.2 0.00 0.00 0.00 66 1028.4
20260505235456 30 157 3.2 4.8 0.00 0.00 0.00 65 1028.3
20260505234952 30 262 1.6 1.6 0.00 0.00 0.00 66 1028.4
20260505234450 30 184 0.0 1.6 0.00 0.00 0.00 65 1028.3
20260505233947 30 220 1.6 4.8 0.00 0.00 0.00 65 1028.0
20260505233444 30 249 6.4 9.7 0.00 0.00 0.00 64 1028.2
20260505232941 30 180 4.8 12.9 0.00 0.00 0.00 64 1028.0
20260505232440 30 163 3.2 11.3 0.00 0.00 0.00 63 1027.8
20260505231936 31 131 6.4 11.3 0.00 0.00 0.00 62 1027.7
20260505231433 31 162 3.2 9.7 0.00 0.00 0.00 62 1027.9
20260505230932 31 209 3.2 12.9 0.00 0.00 0.00 62 1028.0
20260505230429 31 207 3.2 12.9 0.00 0.00 0.00 61 1028.1
20260505225925 31 172 4.8 9.7 0.00 0.00 0.00 59 1027.9
20260505225423 32 199 6.4 11.3 0.00 0.00 0.00 55 1027.5
20260505224918 32 179 3.2 9.7 0.00 0.00 0.00 53 1027.4
20260505224415 32 176 3.2 9.7 0.00 0.00 0.00 54 1027.5
20260505223912 32 206 8.0 11.3 0.00 0.00 0.00 54 1027.6
20260505223409 32 197 3.2 12.9 0.00 0.00 0.00 54 1027.6
20260505222905 32 143 3.2 4.8 0.00 0.00 0.00 54 1027.6
20260505222402 32 177 3.2 11.3 0.00 0.00 0.00 54 1027.6
20260505221858 32 189 3.2 9.7 0.00 0.00 0.00 54 1027.4
20260505221355 32 147 6.4 11.3 0.00 0.00 0.00 53 1027.4
20260505220852 32 242 3.2 6.4 0.00 0.00 0.00 52 1027.6
20260505220349 32 231 3.2 4.8 0.00 0.00 0.00 51 1027.3
20260505215847 32 230 0.0 3.2 0.00 0.00 0.00 50 1027.3
20260505215345 33 159 6.4 12.9 0.00 0.00 0.00 49 1027.3
20260505214843 33 220 0.0 9.7 0.00 0.00 0.00 49 1027.2
20260505214340 33 149 3.2 4.8 0.00 0.00 0.00 48 1027.4
20260505213837 33 277 1.6 4.8 0.00 0.00 0.00 50 1027.5
20260505213335 33 168 3.2 4.8 0.00 0.00 0.00 50 1027.3
20260505212831 33 159 1.6 4.8 0.00 0.00 0.00 49 1027.5
20260505212328 32 146 0.0 4.8 0.00 0.00 0.00 50 1027.8
20260505211824 33 260 3.2 6.4 0.00 0.00 0.00 50 1027.8
20260505211322 32 292 1.6 3.2 0.00 0.00 0.00 51 1027.9
20260505210818 32 148 1.6 3.2 0.00 0.00 0.00 53 1028.0
20260505210315 33 231 1.6 3.2 0.00 0.00 0.00 53 1027.8
20260505205812 33 240 1.6 3.2 0.00 0.00 0.00 51 1028.1
20260505205310 32 189 3.2 4.8 0.00 0.00 0.00 51 1028.0
20260505204807 32 168 3.2 11.3 0.00 0.00 0.00 50 1028.2
20260505204304 32 180 1.6 4.8 0.00 0.00 0.00 53 1028.2
20260505203801 32 125 0.0 4.8 0.00 0.00 0.00 54 1028.2
20260505203258 32 192 3.2 11.3 0.00 0.00 0.00 53 1028.4
20260505202754 32 214 3.2 9.7 0.00 0.00 0.00 53 1028.4
20260505202251 32 156 1.6 3.2 0.00 0.00 0.00 54 1028.4
20260505201747 32 195 3.2 6.4 0.00 0.00 0.00 52 1028.5
20260505201245 32 263 3.2 11.3 0.00 0.00 0.00 53 1028.6
20260505200743 32 189 3.2 4.8 0.00 0.00 0.00 53 1028.7
20260505200240 32 227 1.6 4.8 0.00 0.00 0.00 54 1028.7
20260505195735 32 173 1.6 4.8 0.00 0.00 0.00 55 1028.6
20260505195233 32 192 3.2 3.2 0.00 0.00 0.00 55 1028.6
20260505194730 32 278 1.6 9.7 0.00 0.00 0.00 54 1028.7
20260505194226 32 277 1.6 9.7 0.00 0.00 0.00 56 1028.8
20260505193722 31 267 0.0 6.4 0.00 0.00 0.00 56 1028.6
20260505193220 31 264 3.2 11.3 0.00 0.00 0.00 56 1029.0
20260505192718 31 231 1.6 4.8 0.00 0.00 0.00 56 1028.8
20260505192215 31 283 3.2 11.3 0.00 0.00 0.00 57 1028.5
20260505191714 31 236 4.8 11.3 0.00 0.00 0.00 57 1028.6
20260505191212 31 321 1.6 4.8 0.00 0.00 0.00 58 1028.7
20260505190708 31 186 6.4 11.3 0.00 0.00 0.00 58 1028.8
20260505190207 31 163 8.0 11.3 0.00 0.00 0.00 56 1029.0
20260505185704 31 259 3.2 6.4 0.00 0.00 0.00 57 1029.0
20260505185201 31 204 4.8 4.8 0.00 0.00 0.00 60 1029.2
20260505184657 30 265 3.2 6.4 0.00 0.00 0.00 59 1029.1
20260505184154 30 140 4.8 9.7 0.00 0.00 0.00 61 1029.2
20260505183651 30 293 1.6 6.4 0.00 0.00 0.00 61 1029.2
20260505183149 30 151 0.0 3.2 0.00 0.00 0.00 62 1029.2
20260505182645 30 220 4.8 9.7 0.00 0.00 0.00 60 1029.3
20260505182142 30 268 3.2 12.9 0.00 0.00 0.00 61 1029.3
20260505181638 30 237 6.4 14.5 0.00 0.00 0.00 60 1029.2
20260505181136 30 225 0.0 11.3 0.00 0.00 0.00 63 1029.5
20260505180632 30 151 4.8 11.3 0.00 0.00 0.00 62 1029.4
20260505180129 30 145 1.6 6.4 0.00 0.00 0.00 63 1029.4
20260505175625 29 171 1.6 4.8 0.00 0.00 0.00 63 1029.4
20260505175122 29 204 1.6 11.3 0.00 0.00 0.00 63 1029.4
20260505174618 29 118 4.8 11.3 0.00 0.00 0.00 63 1029.2
20260505174114 28 157 4.8 9.7 0.00 0.00 0.00 64 1029.4
20260505173611 28 183 3.2 6.4 0.00 0.00 0.00 64 1029.4
20260505173108 28 146 8.0 14.5 0.00 0.00 0.00 63 1029.5
20260505172606 28 154 3.2 6.4 0.00 0.00 0.00 64 1029.5
20260505172102 28 152 1.6 6.4 0.00 0.00 0.00 64 1029.6
20260505171557 28 168 1.6 4.8 0.00 0.00 0.00 65 1029.3
20260505171054 28 217 4.8 9.7 0.00 0.00 0.00 65 1029.5
20260505170551 28 166 4.8 12.9 0.00 0.00 0.00 64 1029.7
20260505170047 28 124 1.6 4.8 0.00 0.00 0.00 65 1029.6
20260505165542 28 167 4.8 6.4 0.00 0.00 0.00 64 1029.8
20260505165038 28 231 6.4 11.3 0.00 0.00 0.00 63 1029.6
20260505164535 28 162 1.6 4.8 0.00 0.00 0.00 66 1029.2
20260505164032 28 255 4.8 12.9 0.00 0.00 0.00 65 1029.3
20260505163531 28 160 8.0 17.7 0.00 0.00 0.00 64 1029.2
20260505163027 27 202 6.4 12.9 0.00 0.00 0.00 65 1029.5
20260505162521 27 225 3.2 9.7 0.00 0.00 0.00 67 1029.2
20260505162018 27 162 3.2 11.3 0.00 0.00 0.00 68 1029.4
20260505161514 27 77 4.8 14.5 0.00 0.00 0.00 69 1029.1
20260505161011 27 180 3.2 14.5 0.00 0.00 0.00 69 1029.3
20260505160510 27 222 4.8 12.9 0.00 0.00 0.00 69 1029.4
20260505152946 25 165 4.8 11.3 0.00 0.00 0.00 73 1029.6
20260505152443 26 139 4.8 9.7 0.00 0.00 0.00 73 1029.4
20260505151943 26 336 4.8 12.9 0.00 0.00 0.00 71 1029.6
20260505151439 25 238 3.2 6.4 0.00 0.00 0.00 73 1029.5
20260505150937 25 188 4.8 11.3 0.00 0.00 0.00 74 1029.5
20260505150434 25 174 3.2 11.3 0.00 0.00 0.00 75 1029.6
20260505140404 23 184 8.0 17.7 0.00 0.00 0.00 80 1029.2
20260505124817 21 189 4.8 6.4 0.00 0.00 0.00 86 1028.7
20260505124314 21 192 1.6 6.4 0.00 0.00 0.00 86 1028.6
20260505123810 21 206 4.8 11.3 0.00 0.00 0.00 87 1028.5
20260505123307 21 170 6.4 11.3 0.00 0.00 0.00 87 1028.8
20260505122803 21 151 4.8 9.7 0.00 0.00 0.00 87 1028.5
20260505122301 21 165 1.6 4.8 0.00 0.00 0.00 87 1028.6
20260505121757 21 183 1.6 9.7 0.00 0.00 0.00 87 1028.8
20260505121254 21 245 1.6 11.3 0.00 0.00 0.00 87 1028.4
20260505120750 21 191 3.2 6.4 0.00 0.00 0.00 87 1028.2
20260505120246 21 203 1.6 6.4 0.00 0.00 0.00 87 1028.2
20260505115745 20 256 4.8 9.7 0.00 0.00 0.00 88 1028.6
20260505115243 20 185 1.6 4.8 0.00 0.00 0.00 88 1028.3
20260505114740 20 195 0.0 3.2 0.00 0.00 0.00 88 1028.3
20260505114236 20 278 3.2 6.4 0.00 0.00 0.00 88 1028.4
20260505113733 20 177 3.2 6.4 0.00 0.00 0.00 87 1028.3
20260505113229 20 146 3.2 4.8 0.00 0.00 0.00 87 1028.3
20260505112725 21 171 3.2 6.4 0.00 0.00 0.00 87 1028.4
20260505112223 21 200 3.2 9.7 0.00 0.00 0.00 87 1028.4
20260505111723 21 154 4.8 6.4 0.00 0.00 0.00 87 1028.2
20260505111219 21 203 0.0 9.7 0.00 0.00 0.00 87 1028.1
20260505110715 21 120 4.8 12.9 0.00 0.00 0.00 87 1028.0
20260505110213 21 172 3.2 11.3 0.00 0.00 0.00 86 1028.0
20260505102148 21 205 1.6 9.7 0.00 0.00 0.00 84 1028.0
20260505101647 21 178 3.2 9.7 0.00 0.00 0.00 84 1028.1
20260505101143 21 231 3.2 11.3 0.00 0.00 0.00 84 1028.3
20260505100639 21 209 1.6 6.4 0.00 0.00 0.00 84 1028.3
20260505100136 21 203 9.7 12.9 0.00 0.00 0.00 84 1028.1
20260505095632 21 270 4.8 11.3 0.00 0.00 0.00 83 1028.0
20260505095129 21 169 3.2 6.4 0.00 0.00 0.00 83 1028.1
20260505094626 21 109 6.4 11.3 0.00 0.00 0.00 83 1028.4
20260505094122 21 141 4.8 9.7 0.00 0.00 0.00 83 1028.5
20260505093618 21 213 1.6 14.5 0.00 0.00 0.00 83 1028.2
20260505093115 21 253 4.8 12.9 0.00 0.00 0.00 83 1028.5
20260505092613 21 213 3.2 6.4 0.00 0.00 0.00 83 1028.4
20260505092112 21 257 6.4 9.7 0.00 0.00 0.00 84 1028.5
20260505091608 21 172 3.2 11.3 0.00 0.00 0.00 84 1028.7
20260505091106 21 172 3.2 11.3 0.00 0.00 0.00 84 1028.5
20260505090604 21 197 3.2 9.7 0.00 0.00 0.00 84 1028.8
20260505085558 21 218 6.4 11.3 0.00 0.00 0.00 84 1028.7
20260505085057 21 232 6.4 9.7 0.00 0.00 0.00 84 1028.4
20260505084555 21 219 6.4 17.7 0.00 0.00 0.00 84 1028.5
20260505084053 21 162 4.8 9.7 0.00 0.00 0.00 84 1028.6
20260505083549 21 179 4.8 11.3 0.00 0.00 0.00 84 1028.4
20260505083046 21 123 3.2 4.8 0.00 0.00 0.00 84 1028.3
20260505082542 21 117 8.0 14.5 0.00 0.00 0.00 84 1028.6
20260505082039 21 223 1.6 6.4 0.00 0.00 0.00 83 1028.8
20260505081535 21 169 9.7 17.7 0.00 0.00 0.00 83 1028.6
20260505081032 21 209 8.0 11.3 0.00 0.00 0.00 83 1028.7
20260505080528 21 165 6.4 9.7 0.00 0.00 0.00 83 1028.6
20260505080025 21 162 9.7 12.9 0.00 0.00 0.00 83 1029.0
20260505075521 21 191 4.8 6.4 0.00 0.00 0.00 82 1028.8
20260505075018 21 173 3.2 14.5 0.00 0.00 0.00 82 1028.9
20260505074515 21 197 9.7 22.5 0.00 0.00 0.00 82 1028.8
20260505074013 21 141 8.0 14.5 0.00 0.00 0.00 82 1029.1
20260505073510 21 131 8.0 14.5 0.00 0.00 0.00 82 1029.0
20260505073008 22 167 4.8 20.9 0.00 0.00 0.00 81 1029.1
20260505072503 22 211 3.2 11.3 0.00 0.00 0.00 81 1029.3
20260505071959 22 146 4.8 6.4 0.00 0.00 0.00 81 1029.2
20260505071455 22 207 6.4 12.9 0.00 0.00 0.00 80 1029.6
20260505070954 22 186 6.4 16.1 0.00 0.00 0.00 80 1029.4
20260505070450 22 118 4.8 16.1 0.00 0.00 0.00 80 1029.6
20260505065946 22 185 6.4 9.7 0.00 0.00 0.00 80 1029.9
20260505065443 22 172 4.8 14.5 0.00 0.00 0.00 80 1029.6
20260505064939 22 167 3.2 11.3 0.00 0.00 0.00 79 1029.9
20260505064436 22 182 4.8 14.5 0.00 0.00 0.00 79 1029.7
20260505063935 22 221 3.2 12.9 0.00 0.00 0.00 79 1030.0
20260505063431 22 188 3.2 17.7 0.00 0.00 0.00 78 1029.9
20260505062927 22 168 3.2 12.9 0.00 0.00 0.00 78 1030.0
20260505062425 22 189 9.7 14.5 0.00 0.00 0.00 77 1029.8
20260505061921 22 155 6.4 9.7 0.00 0.00 0.00 77 1030.2
20260505061420 22 157 4.8 9.7 0.00 0.00 0.00 77 1030.1
20260505060917 22 197 4.8 17.7 0.00 0.00 0.00 76 1030.2
20260505060414 22 182 8.0 11.3 0.00 0.00 0.00 76 1029.9
20260505055910 22 111 8.0 14.5 0.00 0.00 0.00 75 1029.9
20260505055406 22 137 6.4 11.3 0.00 0.00 0.00 75 1029.9
20260505054903 22 132 8.0 11.3 0.00 0.00 0.00 74 1029.7
20260505054400 23 146 6.4 12.9 0.00 0.00 0.00 74 1029.7
20260505053858 23 125 6.4 16.1 0.00 0.00 0.00 74 1029.8
20260505053355 23 156 6.4 16.1 0.00 0.00 0.00 73 1029.9
20260505052852 23 135 4.8 14.5 0.00 0.00 0.00 73 1029.9
20260505052349 23 202 6.4 11.3 0.00 0.00 0.00 72 1029.9
20260505051846 23 196 3.2 6.4 0.00 0.00 0.00 72 1030.0
20260505051343 23 214 6.4 12.9 0.00 0.00 0.00 72 1030.0
20260505050841 23 162 3.2 9.7 0.00 0.00 0.00 71 1030.0
20260505050340 23 162 4.8 12.9 0.00 0.00 0.00 71 1030.3
20260505041307 23 207 3.2 9.7 0.00 0.00 0.00 70 1030.2
20260505040804 23 151 4.8 6.4 0.00 0.00 0.00 70 1030.3
20260505040301 23 160 4.8 11.3 0.00 0.00 0.00 70 1030.2
20260505035758 23 127 12.9 17.7 0.00 0.00 0.00 70 1030.3
20260505035254 23 124 8.0 11.3 0.00 0.00 0.00 70 1030.4
20260505034751 23 225 6.4 6.4 0.00 0.00 0.00 70 1030.4
20260505034248 23 85 8.0 12.9 0.00 0.00 0.00 70 1030.4
20260505033744 23 147 3.2 9.7 0.00 0.00 0.00 70 1030.2
20260505033242 23 169 4.8 14.5 0.00 0.00 0.00 70 1030.3
20260505032740 23 205 4.8 9.7 0.00 0.00 0.00 70 1030.0
20260505032235 23 149 3.2 14.5 0.00 0.00 0.00 69 1030.3
20260505031733 23 148 6.4 11.3 0.00 0.00 0.00 69 1030.2
20260505031229 23 151 3.2 12.9 0.00 0.00 0.00 69 1030.2
20260505030726 23 182 3.2 9.7 0.00 0.00 0.00 70 1030.3
20260505030222 23 177 8.0 11.3 0.00 0.00 0.00 70 1030.4
20260505025718 23 157 6.4 9.7 0.00 0.00 0.00 70 1030.3
20260505025217 23 173 1.6 6.4 0.00 0.00 0.00 69 1030.2
20260505024714 23 220 8.0 12.9 0.00 0.00 0.00 69 1030.0
20260505024211 23 151 6.4 12.9 0.00 0.00 0.00 69 1030.2
20260505023709 23 217 12.9 17.7 0.00 0.00 0.00 69 1030.0
20260505023206 23 167 4.8 9.7 0.00 0.00 0.00 69 1030.1
20260505022704 23 250 3.2 12.9 0.00 0.00 0.00 68 1030.0
20260505022200 24 129 6.4 12.9 0.00 0.00 0.00 68 1030.0
20260505021657 24 179 8.0 16.1 0.00 0.00 0.00 68 1030.0
20260505021154 24 193 6.4 11.3 0.00 0.00 0.00 67 1029.8
20260505020649 24 220 3.2 9.7 0.00 0.00 0.00 67 1030.1
20260505020145 24 169 6.4 11.3 0.00 0.00 0.00 67 1029.9
20260505015643 24 258 4.8 9.7 0.00 0.00 0.00 67 1030.0